5NBRO FKYS-DNAA

Flight info

Callsign 5NBRO
Flight time 1h 41m
Altitude 24000
Route UBOSU2N UBOSU UR986 ENIDA UT475 VONVI/N0274F260 UT475 ABC
Aircraft PC12/L-SDFGRWY/S

Departure

Time 2026-05-06 21:21
Airport Yaoundé Nsimalen International Airport (FKYS)

Arrival

Time 2026-05-06 23:03
Airport Nnamdi Azikiwe International Airport (DNAA)
Time Latitude Longitude Altitude Speed Heading
2026-05-06 21:12 3.71369 11.54825 2272 ft 0 kts 268°
2026-05-06 21:14 3.71369 11.54811 2272 ft 7 kts 269°
2026-05-06 21:14 3.71374 11.54717 2272 ft 19 kts 278°
2026-05-06 21:14 3.71418 11.54553 2272 ft 29 kts 290°
2026-05-06 21:15 3.71518 11.54347 2268 ft 37 kts 300°
2026-05-06 21:15 3.71701 11.54088 2229 ft 51 kts 309°
2026-05-06 21:15 3.71839 11.53931 2225 ft 0 kts 312°
2026-05-06 21:16 3.71825 11.53946 2226 ft 1 kts 312°
2026-05-06 21:17 3.71827 11.53945 2226 ft 0 kts 311°
2026-05-06 21:17 3.71146 11.54708 2271 ft 0 kts 311°
2026-05-06 21:17 3.71498 11.54901 2273 ft 0 kts 311°
2026-05-06 21:19 3.71509 11.54900 2273 ft 7 kts 44°
2026-05-06 21:19 3.71439 11.54950 2272 ft 26 kts 193°
2026-05-06 21:19 3.71314 11.54976 2272 ft 21 kts 106°
2026-05-06 21:20 3.71282 11.55139 2272 ft 18 kts 137°
2026-05-06 21:20 3.71101 11.55134 2271 ft 35 kts 190°
2026-05-06 21:20 3.70837 11.55088 2270 ft 31 kts 196°
2026-05-06 21:20 3.70780 11.55070 2269 ft 16 kts 30°
2026-05-06 21:21 3.71024 11.55122 2271 ft 66 kts
2026-05-06 21:21 3.71673 11.55233 2274 ft 119 kts
2026-05-06 21:21 3.72550 11.55388 2567 ft 137 kts
2026-05-06 21:21 3.73519 11.55539 3153 ft 143 kts
2026-05-06 21:22 3.74503 11.55527 3745 ft 143 kts 336°
2026-05-06 21:22 3.75317 11.54971 4354 ft 144 kts 329°
2026-05-06 21:22 3.76264 11.54634 4953 ft 148 kts 342°
2026-05-06 21:22 3.77263 11.54304 5482 ft 155 kts 341°
2026-05-06 21:23 3.78286 11.53907 6201 ft 158 kts 339°
2026-05-06 21:23 3.79299 11.53482 6974 ft 158 kts 340°
2026-05-06 21:23 3.80323 11.53049 7730 ft 161 kts 341°
2026-05-06 21:23 3.81365 11.52607 8476 ft 164 kts 342°
2026-05-06 21:24 3.82419 11.52160 9245 ft 166 kts 345°
2026-05-06 21:24 3.83495 11.51703 9999 ft 169 kts 345°
2026-05-06 21:24 3.84579 11.51243 10679 ft 171 kts 345°
2026-05-06 21:24 3.85678 11.50775 11382 ft 172 kts 345°
2026-05-06 21:25 3.86787 11.50304 12093 ft 174 kts 345°
2026-05-06 21:25 3.87909 11.49828 12810 ft 176 kts 345°
2026-05-06 21:25 3.89041 11.49347 13531 ft 177 kts 345°
2026-05-06 21:25 3.90185 11.48862 14201 ft 179 kts 345°
2026-05-06 21:26 3.91341 11.48371 14783 ft 182 kts 344°
2026-05-06 21:26 3.92515 11.47873 15359 ft 184 kts 344°
2026-05-06 21:26 3.93696 11.47371 15937 ft 185 kts 343°
2026-05-06 21:26 3.94892 11.46863 16507 ft 187 kts 343°
2026-05-06 21:27 3.96083 11.46357 17083 ft 189 kts 343°
2026-05-06 21:27 3.97304 11.45839 17654 ft 191 kts 343°
2026-05-06 21:27 3.98537 11.45315 18236 ft 193 kts 342°
2026-05-06 21:27 3.99779 11.44788 18749 ft 195 kts 342°
2026-05-06 21:28 4.01031 11.44255 19258 ft 196 kts 342°
2026-05-06 21:28 4.02289 11.43720 19766 ft 197 kts 342°
2026-05-06 21:28 4.03565 11.43179 20165 ft 206 kts 342°
2026-05-06 21:28 4.04968 11.42592 20223 ft 230 kts 342°
2026-05-06 21:29 4.06503 11.41942 20262 ft 248 kts 341°
2026-05-06 21:29 4.08125 11.41249 20296 ft 259 kts 341°
2026-05-06 21:29 4.09758 11.40550 20073 ft 252 kts 341°
2026-05-06 21:29 4.11422 11.39845 20019 ft 264 kts 341°
2026-05-06 21:30 4.12553 11.39366 20015 ft 268 kts 341°
2026-05-06 21:30 4.14872 11.38378 20013 ft 272 kts 341°
2026-05-06 21:30 4.16626 11.37632 20013 ft 273 kts 341°
2026-05-06 21:30 4.17787 11.37140 20012 ft 274 kts 341°
2026-05-06 21:31 4.20118 11.36149 20008 ft 275 kts 341°
2026-05-06 21:31 4.21880 11.35400 20009 ft 275 kts 341°
2026-05-06 21:31 4.23642 11.34650 20005 ft 275 kts 341°
2026-05-06 21:31 4.25410 11.33900 20001 ft 275 kts 341°
2026-05-06 21:32 4.27328 11.33083 19995 ft 275 kts 341°
2026-05-06 21:32 4.33993 11.30250 19985 ft 275 kts 341°
2026-05-06 21:32 4.37477 11.28768 19985 ft 275 kts 341°
2026-05-06 21:33 4.41014 11.27264 19983 ft 276 kts 341°
2026-05-06 21:33 4.44545 11.25762 19984 ft 276 kts 341°
2026-05-06 21:33 4.48087 11.24256 19982 ft 276 kts 341°
2026-05-06 21:33 4.52765 11.22267 19980 ft 276 kts 341°
2026-05-06 21:34 4.55150 11.21252 19979 ft 276 kts 341°
2026-05-06 21:34 4.58682 11.19748 19979 ft 276 kts 341°
2026-05-06 21:34 4.62218 11.18246 19980 ft 276 kts 341°
2026-05-06 21:34 4.65755 11.16740 19980 ft 276 kts 341°
2026-05-06 21:35 4.69290 11.15234 19981 ft 276 kts 341°
2026-05-06 21:35 4.72775 11.13751 19982 ft 276 kts 341°
2026-05-06 21:35 4.76311 11.12246 19982 ft 276 kts 341°
2026-05-06 21:35 4.79845 11.10741 19985 ft 276 kts 341°
2026-05-06 21:36 4.83394 11.09244 19985 ft 276 kts 341°
2026-05-06 21:36 4.86941 11.07759 19985 ft 276 kts 341°
2026-05-06 21:36 4.90494 11.06267 19986 ft 276 kts 341°
2026-05-06 21:36 4.94045 11.04777 19987 ft 276 kts 341°
2026-05-06 21:37 4.97591 11.03289 19988 ft 276 kts 341°
2026-05-06 21:37 5.01134 11.01803 19986 ft 276 kts 341°
2026-05-06 21:37 5.04632 11.00332 19987 ft 276 kts 341°
2026-05-06 21:37 5.08182 10.98842 19990 ft 276 kts 341°
2026-05-06 21:38 5.11728 10.97354 19992 ft 276 kts 341°
2026-05-06 21:38 5.15280 10.95861 19994 ft 276 kts 341°
2026-05-06 21:38 5.18824 10.94373 19994 ft 276 kts 341°
2026-05-06 21:38 5.22382 10.92878 19995 ft 276 kts 341°
2026-05-06 21:39 5.25932 10.91386 19994 ft 276 kts 341°
2026-05-06 21:39 5.29487 10.89893 19995 ft 276 kts 341°
2026-05-06 21:39 5.33027 10.88405 20000 ft 276 kts 341°
2026-05-06 21:39 5.36533 10.86932 19999 ft 276 kts 341°
2026-05-06 21:40 5.40080 10.85441 20000 ft 276 kts 341°
2026-05-06 21:40 5.43622 10.83951 20004 ft 276 kts 341°
2026-05-06 21:40 5.47167 10.82461 20005 ft 276 kts 341°
2026-05-06 21:40 5.50706 10.80973 20006 ft 276 kts 341°
2026-05-06 21:41 5.54259 10.79479 20006 ft 276 kts 341°
2026-05-06 21:41 5.57797 10.77990 20010 ft 276 kts 341°
2026-05-06 21:41 5.61295 10.76519 20010 ft 276 kts 341°
2026-05-06 21:41 5.64848 10.75046 20013 ft 274 kts 345°
2026-05-06 21:42 5.68479 10.73860 20016 ft 275 kts 346°
2026-05-06 21:42 5.72107 10.72635 20019 ft 275 kts 346°
2026-05-06 21:42 5.75748 10.71415 20021 ft 276 kts 346°
2026-05-06 21:42 5.79385 10.70196 20019 ft 275 kts 346°
2026-05-06 21:43 5.83013 10.68978 20021 ft 274 kts 346°
2026-05-06 21:43 5.86632 10.67763 20027 ft 275 kts 346°
2026-05-06 21:43 5.90262 10.66544 20028 ft 274 kts 346°
2026-05-06 21:43 5.93878 10.65331 20026 ft 274 kts 346°
2026-05-06 21:44 5.97502 10.64114 20030 ft 274 kts 346°
2026-05-06 21:44 6.01122 10.62899 20030 ft 274 kts 346°
2026-05-06 21:44 6.04746 10.61682 20037 ft 274 kts 346°
2026-05-06 21:44 6.08370 10.60465 20036 ft 275 kts 346°
2026-05-06 21:45 6.11997 10.59246 20037 ft 275 kts 346°
2026-05-06 21:45 6.15622 10.58029 20040 ft 275 kts 346°
2026-05-06 21:45 6.19241 10.56813 20037 ft 275 kts 346°
2026-05-06 21:45 6.22866 10.55593 20037 ft 275 kts 346°
2026-05-06 21:46 6.26489 10.54376 20043 ft 275 kts 346°
2026-05-06 21:46 6.30076 10.53171 20036 ft 275 kts 346°
2026-05-06 21:46 6.33685 10.51955 20041 ft 273 kts 346°
2026-05-06 21:46 6.37296 10.50744 20040 ft 274 kts 346°
2026-05-06 21:47 6.40920 10.49524 20030 ft 275 kts 346°
2026-05-06 21:47 6.44561 10.48299 20028 ft 275 kts 346°
2026-05-06 21:47 6.48188 10.47079 20019 ft 274 kts 346°
2026-05-06 21:47 6.51806 10.45862 20014 ft 275 kts 346°
2026-05-06 21:48 6.55434 10.44642 20006 ft 275 kts 345°
2026-05-06 21:48 6.59018 10.43435 20001 ft 275 kts 346°
2026-05-06 21:48 6.62637 10.42217 19996 ft 275 kts 345°
2026-05-06 21:48 6.66261 10.40997 19987 ft 274 kts 346°
2026-05-06 21:49 6.69891 10.39775 19983 ft 274 kts 345°
2026-05-06 21:49 6.73512 10.38556 19979 ft 274 kts 345°
2026-05-06 21:49 6.77141 10.37333 19974 ft 274 kts 345°
2026-05-06 21:49 6.80762 10.36113 19965 ft 274 kts 345°
2026-05-06 21:50 6.84380 10.34895 19963 ft 274 kts 345°
2026-05-06 21:50 6.87996 10.33676 19958 ft 274 kts 345°
2026-05-06 21:50 6.91529 10.32253 19940 ft 275 kts 337°
2026-05-06 21:50 6.94979 10.30601 19941 ft 275 kts 339°
2026-05-06 21:51 6.98447 10.28931 19942 ft 277 kts 338°
2026-05-06 21:51 7.01910 10.27258 19933 ft 275 kts 338°
2026-05-06 21:51 7.05312 10.25619 19934 ft 275 kts 338°
2026-05-06 21:51 7.08771 10.23951 19926 ft 275 kts 338°
2026-05-06 21:52 7.12224 10.22318 19917 ft 272 kts 343°
2026-05-06 21:52 7.15820 10.21118 19919 ft 273 kts 344°
2026-05-06 21:52 7.19425 10.19861 19921 ft 274 kts 345°
2026-05-06 21:52 7.23043 10.18623 19915 ft 274 kts 345°
2026-05-06 21:53 7.26654 10.17380 19912 ft 275 kts 345°
2026-05-06 21:53 7.30276 10.16135 19912 ft 275 kts 345°
2026-05-06 21:53 7.33905 10.14888 19908 ft 275 kts 344°
2026-05-06 21:53 7.37528 10.13642 19905 ft 275 kts 344°
2026-05-06 21:54 7.41147 10.12397 19903 ft 276 kts 344°
2026-05-06 21:54 7.44783 10.11147 19900 ft 276 kts 344°
2026-05-06 21:54 7.48396 10.09903 19895 ft 276 kts 344°
2026-05-06 21:54 7.52017 10.08658 19894 ft 276 kts 344°
2026-05-06 21:55 7.55652 10.07406 19893 ft 276 kts 344°
2026-05-06 21:55 7.59241 10.06176 19895 ft 276 kts 344°
2026-05-06 21:55 7.62876 10.04939 19893 ft 276 kts 344°
2026-05-06 21:55 7.66519 10.03695 19896 ft 276 kts 344°
2026-05-06 21:56 7.70150 10.02457 19892 ft 276 kts 344°
2026-05-06 21:56 7.73788 10.01215 19892 ft 276 kts 344°
2026-05-06 21:56 7.77428 9.99973 19891 ft 276 kts 344°
2026-05-06 21:56 7.81068 9.98730 19890 ft 276 kts 344°
2026-05-06 21:57 7.84714 9.97485 19889 ft 276 kts 344°
2026-05-06 21:57 7.88360 9.96240 19887 ft 276 kts 344°
2026-05-06 21:57 7.91528 9.94050 19875 ft 283 kts 313°
2026-05-06 21:57 7.93366 9.90532 19877 ft 286 kts 292°
2026-05-06 21:58 7.94830 9.86847 19880 ft 286 kts 293°
2026-05-06 21:58 7.96330 9.83128 19882 ft 286 kts 294°
2026-05-06 21:58 7.97822 9.79399 19880 ft 287 kts 293°
2026-05-06 21:58 7.99320 9.75658 19883 ft 287 kts 294°
2026-05-06 21:59 8.00817 9.71920 19888 ft 287 kts 293°
2026-05-06 21:59 8.02316 9.68175 19887 ft 287 kts 293°
2026-05-06 21:59 8.03813 9.64435 19886 ft 287 kts 293°
2026-05-06 21:59 8.05306 9.60702 19887 ft 287 kts 293°
2026-05-06 22:00 8.06803 9.56959 19888 ft 287 kts 293°
2026-05-06 22:00 8.08301 9.53213 19884 ft 287 kts 293°
2026-05-06 22:00 8.09796 9.49474 19890 ft 287 kts 293°
2026-05-06 22:00 8.11271 9.45782 19885 ft 287 kts 293°
2026-05-06 22:01 8.12765 9.42042 19884 ft 287 kts 293°
2026-05-06 22:01 8.14260 9.38297 19885 ft 287 kts 293°
2026-05-06 22:01 8.15748 9.34571 19887 ft 287 kts 293°
2026-05-06 22:01 8.17238 9.30836 19891 ft 286 kts 293°
2026-05-06 22:02 8.18726 9.27110 19890 ft 286 kts 293°
2026-05-06 22:02 8.20215 9.23375 19889 ft 287 kts 293°
2026-05-06 22:02 8.21703 9.19642 19891 ft 287 kts 293°
2026-05-06 22:02 8.23191 9.15911 19890 ft 287 kts 293°
2026-05-06 22:03 8.24681 9.12172 19894 ft 287 kts 293°
2026-05-06 22:03 8.26168 9.08438 19886 ft 287 kts 293°
2026-05-06 22:03 8.27656 9.04701 19888 ft 286 kts 293°
2026-05-06 22:03 8.29143 9.00972 19889 ft 286 kts 293°
2026-05-06 22:04 8.30619 8.97272 19893 ft 287 kts 293°
2026-05-06 22:04 8.32105 8.93543 19896 ft 286 kts 293°
2026-05-06 22:04 8.33589 8.89820 19898 ft 286 kts 293°
2026-05-06 22:04 8.35075 8.86091 19895 ft 286 kts 293°
2026-05-06 22:05 8.36561 8.82359 19897 ft 286 kts 293°
2026-05-06 22:05 8.38045 8.78631 19896 ft 286 kts 293°
2026-05-06 22:05 8.39521 8.74903 19898 ft 286 kts 293°
2026-05-06 22:05 8.41002 8.71165 19899 ft 286 kts 293°
2026-05-06 22:06 8.42482 8.67429 19897 ft 286 kts 293°
2026-05-06 22:06 8.43960 8.63697 19895 ft 286 kts 293°
2026-05-06 22:06 8.45438 8.59962 19897 ft 286 kts 293°
2026-05-06 22:06 8.46915 8.56230 19898 ft 286 kts 293°
2026-05-06 22:07 8.48391 8.52497 19897 ft 286 kts 293°
2026-05-06 22:07 8.49867 8.48768 19902 ft 286 kts 293°
2026-05-06 22:07 8.51327 8.45073 19901 ft 286 kts 293°
2026-05-06 22:07 8.52808 8.41327 19902 ft 286 kts 293°
2026-05-06 22:08 8.54287 8.37583 19903 ft 286 kts 293°
2026-05-06 22:08 8.55767 8.33837 19902 ft 286 kts 293°
2026-05-06 22:08 8.57240 8.30105 19901 ft 286 kts 293°
2026-05-06 22:08 8.58716 8.26366 19903 ft 286 kts 293°
2026-05-06 22:09 8.60204 8.22637 19901 ft 286 kts 293°
2026-05-06 22:09 8.61671 8.18949 19908 ft 286 kts 293°
2026-05-06 22:09 8.63157 8.15213 19906 ft 287 kts 293°
2026-05-06 22:09 8.64655 8.11472 19903 ft 286 kts 295°
2026-05-06 22:10 8.66388 8.07856 19906 ft 286 kts 297°
2026-05-06 22:10 8.68093 8.04236 19905 ft 286 kts 297°
2026-05-06 22:10 8.69814 8.00595 19904 ft 286 kts 297°
2026-05-06 22:10 8.71531 7.96962 19906 ft 286 kts 297°
2026-05-06 22:11 8.73247 7.93328 19906 ft 286 kts 297°
2026-05-06 22:11 8.74959 7.89704 19906 ft 286 kts 297°
2026-05-06 22:11 8.76672 7.86075 19907 ft 286 kts 297°
2026-05-06 22:11 8.78386 7.82443 19907 ft 286 kts 297°
2026-05-06 22:12 8.80098 7.78816 19909 ft 286 kts 297°
2026-05-06 22:12 8.81810 7.75188 19910 ft 286 kts 297°
2026-05-06 22:12 8.83521 7.71556 19912 ft 286 kts 297°
2026-05-06 22:12 8.85232 7.67928 19912 ft 286 kts 297°
2026-05-06 22:13 8.86941 7.64302 19914 ft 286 kts 297°
2026-05-06 22:13 8.88654 7.60666 19916 ft 286 kts 297°
2026-05-06 22:13 8.90344 7.57077 19919 ft 286 kts 297°
2026-05-06 22:13 8.92054 7.53445 19918 ft 286 kts 297°
2026-05-06 22:14 8.93765 7.49812 19919 ft 286 kts 297°
2026-05-06 22:14 8.95476 7.46175 19921 ft 286 kts 297°
2026-05-06 22:14 8.97185 7.42540 19920 ft 286 kts 297°
2026-05-06 22:14 8.98904 7.38886 19921 ft 286 kts 297°
2026-05-06 22:15 9.00611 7.35256 19917 ft 286 kts 297°
2026-05-06 22:15 9.02862 7.32047 19910 ft 280 kts 328°
2026-05-06 22:15 9.06448 7.31160 19906 ft 271 kts
2026-05-06 22:15 9.09743 7.32752 19915 ft 263 kts 38°
2026-05-06 22:16 9.12803 7.34872 19915 ft 265 kts 27°
2026-05-06 22:16 9.16415 7.34779 19913 ft 278 kts 336°
2026-05-06 22:16 9.18754 7.31730 19908 ft 287 kts 282°
2026-05-06 22:16 9.17804 7.27958 19909 ft 284 kts 227°
2026-05-06 22:17 9.14365 7.26422 19906 ft 273 kts 175°
2026-05-06 22:17 9.10649 7.27043 19924 ft 271 kts 166°
2026-05-06 22:17 9.06930 7.27699 19924 ft 272 kts 167°
2026-05-06 22:17 9.03169 7.27915 19905 ft 278 kts 194°
2026-05-06 22:18 8.99894 7.25784 19911 ft 282 kts 215°
2026-05-06 22:18 8.96707 7.23480 19917 ft 282 kts 212°
2026-05-06 22:18 8.93493 7.21210 19916 ft 282 kts 213°
2026-05-06 22:18 8.90277 7.18917 19916 ft 282 kts 213°
2026-05-06 22:19 8.88151 7.17408 19918 ft 282 kts 213°
2026-05-06 22:19 8.83891 7.14378 19915 ft 283 kts 213°
2026-05-06 22:19 8.80669 7.12089 19913 ft 282 kts 213°
2026-05-06 22:19 8.77459 7.09808 19911 ft 282 kts 213°
2026-05-06 22:20 8.74243 7.07524 19911 ft 282 kts 213°
2026-05-06 22:20 8.72112 7.06011 19911 ft 282 kts 213°
2026-05-06 22:20 8.68897 7.03728 19909 ft 282 kts 213°
2026-05-06 22:20 8.65689 7.01449 19910 ft 282 kts 213°
2026-05-06 22:21 8.62474 6.99168 19907 ft 282 kts 213°
2026-05-06 22:21 8.59263 6.96889 19904 ft 282 kts 213°
2026-05-06 22:21 8.56049 6.94609 19906 ft 282 kts 213°
2026-05-06 22:21 8.52837 6.92331 19905 ft 281 kts 213°
2026-05-06 22:22 8.49629 6.90055 19906 ft 281 kts 213°
2026-05-06 22:22 8.46426 6.87785 19905 ft 281 kts 213°
2026-05-06 22:22 8.43220 6.85512 19905 ft 282 kts 213°
2026-05-06 22:22 8.40012 6.83238 19902 ft 282 kts 213°
2026-05-06 22:23 8.36796 6.80959 19904 ft 282 kts 212°
2026-05-06 22:23 8.33587 6.78686 19906 ft 282 kts 213°
2026-05-06 22:23 8.30373 6.76410 19905 ft 282 kts 213°
2026-05-06 22:23 8.27206 6.74166 19905 ft 282 kts 213°
2026-05-06 22:24 8.23985 6.71886 19904 ft 282 kts 213°
2026-05-06 22:24 8.20764 6.69606 19910 ft 282 kts 213°
2026-05-06 22:24 8.17549 6.67330 19914 ft 282 kts 213°
2026-05-06 22:24 8.14334 6.65056 19911 ft 282 kts 213°
2026-05-06 22:25 8.11113 6.62777 19914 ft 282 kts 212°
2026-05-06 22:25 8.07935 6.60529 19915 ft 282 kts 212°
2026-05-06 22:25 8.04672 6.58222 19915 ft 283 kts 213°
2026-05-06 22:25 8.01495 6.55975 19919 ft 283 kts 212°
2026-05-06 22:26 7.98265 6.53692 19923 ft 283 kts 212°
2026-05-06 22:26 7.95038 6.51412 19922 ft 283 kts 213°
2026-05-06 22:26 7.91805 6.49126 19927 ft 283 kts 212°
2026-05-06 22:26 7.88579 6.46847 19931 ft 283 kts 212°
2026-05-06 22:27 7.85360 6.44573 19932 ft 283 kts 212°
2026-05-06 22:27 7.82135 6.42296 19933 ft 283 kts 212°
2026-05-06 22:27 7.78917 6.40024 19934 ft 282 kts 212°
2026-05-06 22:27 7.75700 6.37753 19935 ft 282 kts 212°
2026-05-06 22:28 7.72480 6.35480 19940 ft 282 kts 212°
2026-05-06 22:28 7.69259 6.33207 19940 ft 283 kts 212°
2026-05-06 22:28 7.66037 6.30934 19943 ft 282 kts 212°
2026-05-06 22:28 7.62821 6.28666 19943 ft 282 kts 212°
2026-05-06 22:29 7.59597 6.26392 19946 ft 282 kts 213°
2026-05-06 22:29 7.56429 6.24158 19950 ft 282 kts 212°
2026-05-06 22:29 7.53203 6.21884 19950 ft 282 kts 212°
2026-05-06 22:29 7.49985 6.19615 19952 ft 282 kts 212°
2026-05-06 22:30 7.46764 6.17344 19950 ft 282 kts 212°
2026-05-06 22:30 7.43545 6.15077 19951 ft 282 kts 212°
2026-05-06 22:30 7.40323 6.12807 19951 ft 282 kts 212°
2026-05-06 22:30 7.37102 6.10538 19951 ft 282 kts 212°
2026-05-06 22:31 7.33879 6.08268 19948 ft 282 kts 212°
2026-05-06 22:31 7.30659 6.06002 19952 ft 282 kts 212°
2026-05-06 22:31 7.27478 6.03762 19952 ft 283 kts 212°
2026-05-06 22:31 7.24256 6.01494 19954 ft 283 kts 212°
2026-05-06 22:32 7.21035 5.99227 19954 ft 282 kts 212°
2026-05-06 22:32 7.17810 5.96959 19952 ft 283 kts 212°
2026-05-06 22:32 7.14580 5.94686 19953 ft 283 kts 212°
2026-05-06 22:32 7.11349 5.92413 19951 ft 283 kts 212°
2026-05-06 22:33 7.08120 5.90143 19950 ft 283 kts 212°
2026-05-06 22:33 7.04889 5.87871 19949 ft 283 kts 212°
2026-05-06 22:33 7.01658 5.85600 19951 ft 283 kts 212°
2026-05-06 22:33 6.98469 5.83358 19951 ft 283 kts 212°
2026-05-06 22:34 6.95242 5.81091 19950 ft 283 kts 212°
2026-05-06 22:34 6.92014 5.78822 19952 ft 283 kts 212°
2026-05-06 22:34 6.88786 5.76555 19950 ft 283 kts 212°
2026-05-06 22:34 6.85567 5.74293 19953 ft 283 kts 212°
2026-05-06 22:35 6.82331 5.72021 19952 ft 283 kts 212°
2026-05-06 22:35 6.79107 5.69757 19949 ft 283 kts 212°
2026-05-06 22:35 6.75880 5.67492 19949 ft 283 kts 212°
2026-05-06 22:35 6.72654 5.65227 19950 ft 283 kts 212°
2026-05-06 22:36 6.69426 5.62962 19948 ft 283 kts 212°
2026-05-06 22:36 6.66198 5.60696 19948 ft 283 kts 212°
2026-05-06 22:36 6.62972 5.58434 19946 ft 282 kts 212°
2026-05-06 22:36 6.59745 5.56169 19947 ft 282 kts 212°
2026-05-06 22:37 6.56525 5.53911 19945 ft 282 kts 212°
2026-05-06 22:37 6.53341 5.51679 19947 ft 282 kts 212°
2026-05-06 22:37 6.50120 5.49420 19946 ft 282 kts 212°
2026-05-06 22:37 6.46900 5.47163 19944 ft 282 kts 212°
2026-05-06 22:38 6.43675 5.44903 19945 ft 282 kts 212°
2026-05-06 22:38 6.40444 5.42638 19944 ft 282 kts 212°
2026-05-06 22:38 6.37227 5.40383 19942 ft 282 kts 212°
2026-05-06 22:38 6.33999 5.38122 19941 ft 282 kts 212°
2026-05-06 22:39 6.30781 5.35867 19942 ft 282 kts 212°
2026-05-06 22:39 6.27567 5.33616 19944 ft 282 kts 212°
2026-05-06 22:39 6.24340 5.31357 19941 ft 282 kts 212°
2026-05-06 22:39 6.21087 5.29165 19928 ft 279 kts 202°
2026-05-06 22:40 6.17450 5.29315 19919 ft 265 kts 146°
2026-05-06 22:40 6.15480 5.32251 19923 ft 257 kts 101°
2026-05-06 22:40 6.15877 5.35706 19926 ft 258 kts 64°
2026-05-06 22:40 6.18495 5.38122 19929 ft 264 kts 29°
2026-05-06 22:41 6.34945 5.48744 19941 ft 263 kts 36°
2026-05-06 22:41 6.41059 5.52796 19940 ft 263 kts 36°
2026-05-06 22:41 6.47170 5.56859 19939 ft 263 kts 36°
2026-05-06 22:42 6.53268 5.60914 19939 ft 263 kts 36°
2026-05-06 22:42 6.59383 5.64983 19942 ft 263 kts 36°
2026-05-06 22:42 6.65487 5.69046 19941 ft 263 kts 36°
2026-05-06 22:42 6.71556 5.73086 19941 ft 263 kts 36°
2026-05-06 22:43 6.77653 5.77145 19944 ft 263 kts 36°
2026-05-06 22:43 6.83760 5.81213 19944 ft 263 kts 36°
2026-05-06 22:43 6.89861 5.85277 19944 ft 263 kts 36°
2026-05-06 22:43 6.95970 5.89350 19943 ft 263 kts 36°
2026-05-06 22:44 7.02078 5.93422 19945 ft 263 kts 36°
2026-05-06 22:44 7.08189 5.97497 19944 ft 264 kts 36°
2026-05-06 22:44 7.14299 6.01575 19946 ft 263 kts 36°
2026-05-06 22:44 7.20414 6.05654 19948 ft 263 kts 36°
2026-05-06 22:45 7.26519 6.09730 19950 ft 263 kts 36°
2026-05-06 22:45 7.32656 6.13828 19948 ft 263 kts 36°
2026-05-06 22:45 7.36225 6.16213 19949 ft 264 kts 36°
2026-05-06 22:45 7.39323 6.18282 19947 ft 264 kts 36°
2026-05-06 22:46 7.42345 6.20301 19947 ft 264 kts 36°
2026-05-06 22:46 7.45403 6.22346 19946 ft 264 kts 36°
2026-05-06 22:46 7.48460 6.24389 19943 ft 264 kts 36°
2026-05-06 22:46 7.51520 6.26435 19943 ft 264 kts 36°
2026-05-06 22:47 7.54589 6.28487 19942 ft 264 kts 36°
2026-05-06 22:47 7.57653 6.30536 19940 ft 264 kts 36°
2026-05-06 22:47 7.60715 6.32584 19939 ft 264 kts 36°
2026-05-06 22:47 7.63781 6.34636 19934 ft 264 kts 36°
2026-05-06 22:48 7.66846 6.36686 19933 ft 264 kts 36°
2026-05-06 22:48 7.69902 6.38732 19922 ft 264 kts 36°
2026-05-06 22:48 7.72967 6.40783 19922 ft 264 kts 36°
2026-05-06 22:48 7.75988 6.42806 19921 ft 264 kts 36°
2026-05-06 22:49 7.79047 6.44854 19917 ft 264 kts 36°
2026-05-06 22:49 7.82104 6.46901 19917 ft 264 kts 36°
2026-05-06 22:49 7.85162 6.48950 19918 ft 264 kts 36°
2026-05-06 22:49 7.88215 6.50995 19912 ft 263 kts 36°
2026-05-06 22:50 7.91268 6.53041 19911 ft 263 kts 36°
2026-05-06 22:50 7.96879 6.56802 19921 ft 262 kts 36°
2026-05-06 22:50 8.02977 6.60890 19904 ft 263 kts 36°
2026-05-06 22:50 8.09094 6.64994 19915 ft 264 kts 36°
2026-05-06 22:51 8.15208 6.69096 19914 ft 264 kts 36°
2026-05-06 22:51 8.21332 6.73207 19907 ft 264 kts 36°
2026-05-06 22:51 8.27374 6.77264 19907 ft 264 kts 36°
2026-05-06 22:51 8.33498 6.81378 19905 ft 264 kts 36°
2026-05-06 22:52 8.39619 6.85491 19903 ft 264 kts 36°
2026-05-06 22:52 8.45750 6.89613 19906 ft 265 kts 36°
2026-05-06 22:52 8.51891 6.93743 19907 ft 264 kts 36°
2026-05-06 22:52 8.58096 6.97918 19509 ft 272 kts 36°
2026-05-06 22:53 8.64440 7.02187 18431 ft 276 kts 36°
2026-05-06 22:53 8.68383 7.04843 17553 ft 275 kts 36°
2026-05-06 22:53 8.71570 7.06989 16815 ft 274 kts 36°
2026-05-06 22:53 8.74724 7.09114 16060 ft 271 kts 36°
2026-05-06 22:54 8.77844 7.11216 15327 ft 267 kts 36°
2026-05-06 22:54 8.80918 7.13287 14613 ft 264 kts 36°
2026-05-06 22:54 8.83961 7.15337 13891 ft 262 kts 36°
2026-05-06 22:54 8.86972 7.17369 13134 ft 260 kts 36°
2026-05-06 22:55 8.89949 7.19375 12367 ft 257 kts 36°
2026-05-06 22:55 8.92872 7.21346 11637 ft 254 kts 36°
2026-05-06 22:55 8.95804 7.23325 10882 ft 252 kts 36°
2026-05-06 22:55 8.98678 7.25264 10147 ft 250 kts 35°
2026-05-06 22:56 9.01583 7.27225 9309 ft 252 kts 35°
2026-05-06 22:56 9.04530 7.29212 8299 ft 256 kts 34°
2026-05-06 22:56 9.07530 7.31239 7181 ft 262 kts 34°
2026-05-06 22:56 9.10571 7.33291 6195 ft 263 kts 33°
2026-05-06 22:57 9.12230 7.34721 5749 ft 264 kts 53°
2026-05-06 22:57 9.12883 7.36421 5407 ft 260 kts 84°
2026-05-06 22:57 9.12665 7.38155 5089 ft 227 kts 112°
2026-05-06 22:57 9.11928 7.39416 4809 ft 189 kts 135°
2026-05-06 22:58 9.11005 7.40199 4566 ft 161 kts 153°
2026-05-06 22:58 9.10037 7.40624 4369 ft 155 kts 167°
2026-05-06 22:58 9.08982 7.40773 4163 ft 147 kts 185°
2026-05-06 22:58 9.07950 7.40632 3975 ft 148 kts 197°
2026-05-06 22:59 9.07015 7.40230 3782 ft 145 kts 211°
2026-05-06 22:59 9.06215 7.39596 3595 ft 148 kts 225°
2026-05-06 22:59 9.05610 7.38778 3405 ft 147 kts 239°
2026-05-06 22:59 9.05232 7.37813 3213 ft 149 kts 252°
2026-05-06 23:00 9.05038 7.36783 3009 ft 149 kts 255°
2026-05-06 23:00 9.04830 7.35759 2802 ft 147 kts 255°
2026-05-06 23:00 9.04615 7.34732 2588 ft 145 kts 255°
2026-05-06 23:00 9.04394 7.33715 2285 ft 149 kts 256°
2026-05-06 23:01 9.04163 7.32691 1997 ft 151 kts 256°
2026-05-06 23:01 9.03926 7.31683 1693 ft 141 kts 255°
2026-05-06 23:01 9.03725 7.30840 1602 ft 111 kts 255°
2026-05-06 23:01 9.03546 7.30027 1565 ft 125 kts 258°
2026-05-06 23:02 9.03387 7.29163 1561 ft 125 kts 258°
2026-05-06 23:02 9.03111 7.28314 1458 ft 129 kts 244°
2026-05-06 23:02 9.02600 7.27663 1297 ft 108 kts 216°
2026-05-06 23:02 9.01994 7.27245 1164 ft 104 kts 216°
2026-05-06 23:03 9.01417 7.26832 1120 ft 94 kts 215°
2026-05-06 23:03 9.01055 7.26581 1108 ft 29 kts 215°
2026-05-06 23:03 9.00872 7.26450 1101 ft 42 kts 214°
2026-05-06 23:03 9.00704 7.26385 1106 ft 28 kts 137°
2026-05-06 23:04 9.00727 7.26553 1114 ft 36 kts 38°
2026-05-06 23:04 9.00958 7.26718 1116 ft 42 kts 34°
2026-05-06 23:04 9.01140 7.26846 1119 ft 20 kts 43°
2026-05-06 23:04 9.01188 7.27016 1122 ft 27 kts 77°
2026-05-06 23:05 9.01290 7.27127 1122 ft 15 kts 81°
2026-05-06 23:05 9.01252 7.27191 1122 ft 10 kts 130°
2026-05-06 23:05 9.01258 7.27219 1122 ft 0 kts 37°